Weather History for Del Rio Laughlin AFB, TX

Change the Weather History Date:

Saturday, August 31, 2013

  Actual Average Record
Temperature  
Mean Temperature 87 °F -  
Max Temperature 99 °F 95 °F 104 °F (2000)
Min Temperature 75 °F 74 °F 69 °F (2012)
Cooling Degree Days 22    
Growing Degree Days 37 (Base 50)    
Moisture  
Dew Point 62 °F    
Average Humidity 45    
Maximum Humidity 70    
Minimum Humidity 28    
Precipitation  
Precipitation 0.00 in - - ()
Sea Level Pressure  
Sea Level Pressure 29.86 in    
Wind  
Wind Speed 8 mph (SE)    
Max Wind Speed 16 mph    
Max Gust Speed 22 mph    
Visibility 10 miles    
Events      
Averages and records for this station are not official NWS values.
T = Trace of Precipitation, MM = Missing Value Source: NWS Daily Summary

Daily Weather History Graph

Daily Weather History Graph

Search for Another Location

Airport:

Trip Planner

Search our weather history database for the weather conditions in past years. The results will help you decide how hot, cold, wet, or windy it might be!

Date:

Astronomy

Aug. 31, 2013 Rise Set
Actual Time 7:20 AM CDT 8:05 PM CDT
Civil Twilight 6:56 AM CDT 8:30 PM CDT
Nautical Twilight 6:27 AM CDT 8:58 PM CDT
Astronomical Twilight 5:58 AM CDT 9:27 PM CDT
Moon 3:03 AM CDT (8/31) 4:54 PM CDT (8/31)
Length of Visible Light 13h 34m
Length of Day
12h 45m
Waning Crescent, 21% of the Moon is Illuminated
Aug 31
Waning Crescent
Sep 5
New
Sep 12
First Quarter
Sep 19
Full
Sep 26
Last Quarter

Hourly Weather History & Observations

Time (CDT) Temp. Heat Index Dew Point Humidity Pressure Visibility Wind Dir Wind Speed Gust Speed Precip Events Conditions
12:58 AM 83.7 °F 84.3 °F 61.9 °F 48% 29.87 in 10.0 mi SSE 5.8 mph - N/A   Clear
1:58 AM 81.7 °F 82.6 °F 61.7 °F 51% 29.87 in 10.0 mi SE 4.6 mph - N/A   Clear
2:58 AM 78.4 °F - 61.3 °F 56% 29.88 in 10.0 mi East 5.8 mph - N/A   Clear
3:58 AM 77.9 °F - 61.7 °F 57% 29.88 in 10.0 mi ESE 6.9 mph - N/A   Clear
4:58 AM 75.7 °F - 62.1 °F 62% 29.88 in 10.0 mi East 8.1 mph - N/A   Clear
5:58 AM 75.7 °F - 63.1 °F 65% 29.88 in 10.0 mi East 8.1 mph - N/A   Clear
6:58 AM 75.9 °F - 64.4 °F 67% 29.90 in 10.0 mi East 8.1 mph - N/A   Clear
7:58 AM 75.9 °F - 65.7 °F 70% 29.91 in 10.0 mi East 10.4 mph - N/A   Clear
8:58 AM 80.4 °F 83.0 °F 67.6 °F 65% 29.92 in 10.0 mi ESE 10.4 mph - N/A   Clear
9:58 AM 83.7 °F 87.2 °F 68.7 °F 61% 29.93 in 10.0 mi SSE 10.4 mph - N/A   Clear
10:58 AM 87.4 °F 90.8 °F 67.8 °F 52% 29.93 in 10.0 mi SSE 10.4 mph - N/A   Clear
11:58 AM 91.4 °F 93.2 °F 64.8 °F 41% 29.92 in 10.0 mi Variable 5.8 mph - N/A   Clear
12:58 PM 94.8 °F 94.9 °F 60.3 °F 32% 29.89 in 10.0 mi Variable 4.6 mph - N/A   Clear
1:58 PM 97.0 °F 97.8 °F 61.5 °F 31% 29.86 in 10.0 mi South 8.1 mph - N/A   Clear
2:58 PM 98.2 °F 98.9 °F 60.6 °F 29% 29.83 in 10.0 mi SSE 6.9 mph - N/A   Clear
3:58 PM 99.1 °F 100.3 °F 61.3 °F 29% 29.81 in 10.0 mi South 16.1 mph 21.9 mph N/A   Partly Cloudy
4:58 PM 99.1 °F 99.8 °F 60.6 °F 28% 29.80 in 10.0 mi South 12.7 mph - N/A   Partly Cloudy
5:58 PM 98.6 °F 99.4 °F 61.5 °F 29% 29.78 in 10.0 mi South 10.4 mph - N/A   Clear
6:58 PM 97.0 °F 97.4 °F 60.6 °F 30% 29.78 in 10.0 mi SE 11.5 mph - N/A   Clear
7:58 PM 95.2 °F 95.1 °F 59.7 °F 31% 29.78 in 10.0 mi SE 11.5 mph - N/A   Clear
8:58 PM 90.9 °F 90.0 °F 58.6 °F 34% 29.80 in 10.0 mi SE 5.8 mph - N/A   Clear
9:58 PM 87.8 °F 87.1 °F 59.2 °F 38% 29.82 in 10.0 mi SE 5.8 mph - N/A   Clear
10:58 PM 87.4 °F 87.4 °F 61.2 °F 41% 29.83 in 10.0 mi SE 8.1 mph - N/A   Clear
11:58 PM 87.6 °F 87.9 °F 62.2 °F 42% 29.81 in 10.0 mi SSE 13.8 mph - N/A   Clear